Location: *
(55.6049°S, 142.1985°W)
Time: 01:24:54
(UTC+00:00)

H-2A R/B - Pass Details

Date: 12 May 2021
Orbit: 734 x 836 km, 98.2° (Epoch: 23 June)

Event Time Altitude Azimuth Distance (km) Brightness Sun altitude
Rises 14:12:16 0° 58° (ENE) 3,394 6.1 -25.3°
Reaches altitude 10° 14:14:57 10° 69° (ENE) 2,460 5.5 -24.9°
Maximum altitude 14:19:27 27° 125° (SE) 1,563 4.1 -24.2°
Drops below altitude 10° 14:23:54 10° 180° (S) 2,439 4.6 -23.6°
Sets 14:26:33 0° 191° (S) 3,361 5.2 -23.2°
